Погода в Опарине

Россия / Кемеровская область (Кузбасс)     55°25′50″N   85°13′56″E
темп.,
°C
ветер,
м/с
пор.,
м/с
влажн.,
%
обл.,
%
осадки,
мм/ч
давл.,
гПа
погр.,
м
19 сентября, вс
вс1901:00+4юз368259 0.0 1010103
04:00+7ююз4871100 0.0 1010313
07:00+6ю597399 0.0 1009340
10:00+8ююз6960100 0.0 1008652
13:00+11ююз6850100 0.0 10071283
16:00+13ююз7104493 0.0 10051904
19:00+12юз4853100 0.0 1004510
22:00+8зюз368322 0.4 1005236
20 сентября, пн
пн2001:00+4зюз389591 0.4 1006187
04:00+4зюз3888100 0.0 1006199
07:00+3юз410925 0.1 1008295
10:00+6зюз71170100 0.0 10091099
13:00+6юз91267100 0.2 10111370
16:00+5юз81280100 0.6 10111205
19:00+4зюз51081100 1.3 1012878
22:00+3юз51092100 0.2 1012780
21 сентября, вт
вт2101:00+2юз4993100 0.4 1011604
04:00+2зюз5992100 0.1 1011688
07:000зюз6994100 0.5 1012789
10:00+1зюз6990100 0.1 1013678
13:00+2зюз61097100 0.4 1014552
16:00+4з6109199 0.5 1015872
19:00+3з589299 1.1 1016626
22:00+1зюз379787 0.2 1017210
22 сентября, ср
ср2201:00+2зюз4793100 0.3 1018480
04:00+1з4898100 0.1 1018453
07:000з5788100 0.5 1019646
10:00+1зюз467986 0.0 1020601
13:00+3зюз6775100 0.3 10201066
16:00+4зюз5677100 0.4 1020949
19:00+2юз369398 1.1 1020476
22:00+1юз369799 0.1 1020292
23 сентября, чт
чт2301:00+1юз3698100 0.2 1020338
04:00+1юз3699100 0.2 1020256
07:000юз3697100 0.4 1021412
10:00+1юз3798100 0.3 1021290
13:00+2ююз4699100 0.8 1021306
16:00+3юз3696100 0.6 1021576
19:00+2зсз2396100 1.2 1022221
22:00+1в1196100 0.1 102217